Temp_Advection
nan nan nan nan nan nan nan nan nan nan nan nan nan nan nan nan nan nan nan nan nan nan
nan 0 0 0 0 0 0 0 0 0 -0 -0 -0 -0 -0 0 -0 -0 0 0 0 nan
nan 0 0 0 0 0 0 0 0 0 0 -0 0 -0 0 0 -0 0 0 0 0 nan
nan 0 0 0 0 0 0 0 0 -0 0 -0 -0 -0 -0 -0 -0 -0 0 0 0 nan
nan 1 0 0 0 0 0 0 0 0 -0 0 -0 -0 -0 -0 -0 -0 -0 -0 -0 nan
nan 0 -0 0 0 -0 -0 0 0 -0 -0 0 0 -0 -0 -0 -0 -0 -0 -0 -0 nan
nan -0 0 0 0 -0 0 0 0 -0 0 0 0 0 -0 -0 -0 -0 -0 -0 -0 nan
nan 0 0 0 0 0 0 0 0 0 0 0 0 0 -0 -0 -0 -0 -0 -0 -1 nan
nan 0 0 0 0 0 0 0 0 0 0 0 0 0 -0 -0 -0 -0 -1 -1 -1 nan
nan 1 1 0 0 1 0 0 0 0 0 0 0 0 0 0 -1 -1 -1 -0 -0 nan
nan 1 1 1 1 1 1 1 0 0 -0 -0 0 0 -0 -0 -1 -0 -0 -0 0 nan
nan 1 1 1 1 0 0 0 0 0 0 -0 -0 0 -0 -0 -0 0 0 -0 -0 nan
nan 0 0 -0 -0 -0 -0 0 0 -0 -0 -0 -0 0 -0 -0 -0 0 0 -0 -1 nan
nan nan nan nan nan nan nan nan nan nan nan nan nan nan nan nan nan nan nan nan nan nan
Wind_Speed
13 11 9 8 6 7 7 5 4 4 4 4 4 5 6 6 6 7 7 8 8 7
13 10 7 7 6 6 5 1 3 2 3 2 3 4 2 5 5 3 4 5 8 6
14 11 9 8 7 6 4 5 3 3 3 2 2 2 1 4 4 3 4 6 9 10
15 12 10 9 8 7 5 4 4 3 3 1 1 2 3 4 5 6 7 8 11 12
16 14 12 10 9 8 6 5 4 5 3 1 1 3 3 5 7 7 8 10 11 13
17 16 14 11 10 10 8 7 7 6 4 2 1 3 4 5 6 7 9 9 12 13
21 16 14 11 10 10 8 7 8 6 5 3 2 2 3 4 5 6 7 8 10 12
19 15 12 11 11 10 9 9 8 7 6 5 3 3 3 5 6 7 8 9 11 13
22 17 14 13 12 11 10 9 8 7 5 5 3 3 4 7 9 9 9 12 14 13
23 20 17 15 13 12 11 11 9 7 4 3 3 3 4 3 9 10 10 9 9 14
22 20 18 16 13 12 11 10 8 7 7 8 1 1 4 8 9 2 6 8 8 8
22 20 19 18 15 13 11 10 11 11 11 12 6 4 8 9 8 5 5 10 10 10
22 22 20 20 19 17 15 16 15 16 17 12 7 6 8 10 7 6 1 10 15 12
23 23 22 22 20 19 19 18 17 16 13 15 8 5 7 9 5 5 4 6 12 11
Wind_Direction
179 179 175 185 180 178 222 264 305 323 327 344 2 31 33 354 31 26 4 343 355 37
184 184 186 182 186 195 221 296 281 286 313 332 10 56 51 351 37 61 359 333 360 25
185 188 186 173 193 213 201 204 253 264 270 300 15 52 19 7 29 22 16 5 12 17
187 180 182 190 198 202 204 199 224 264 256 280 7 40 34 27 32 26 27 28 27 25
184 179 187 196 199 195 199 204 220 238 243 206 48 65 50 49 46 37 40 36 30 29
182 185 193 191 192 191 202 205 206 219 216 197 118 92 74 55 56 47 41 36 33 29
192 196 197 202 203 207 215 218 218 221 215 194 156 117 89 77 66 51 42 36 34 29
197 197 202 202 204 204 205 207 206 204 201 167 151 126 106 88 73 59 45 39 33 28
200 202 201 199 201 201 198 197 195 186 180 167 151 130 111 94 62 47 45 40 24 23
198 197 196 196 197 196 191 190 182 171 148 169 137 144 138 132 72 29 26 34 36 353
191 190 190 187 188 185 183 181 169 144 121 252 180 163 133 102 79 11 345 355 2 346
186 184 180 173 181 170 175 158 176 172 172 233 229 194 151 121 109 295 328 333 343 358
183 182 178 176 175 175 177 183 197 186 194 219 212 203 177 149 162 230 232 328 327 353
183 180 183 179 181 177 190 199 203 208 202 211 216 184 197 196 228 220 175 243 291 336
Height
1484 1485 1487 1487 1488 1490 1493 1491 1493 1493 1492 1491 1490 1487 1488 1486 1485 1487 1488 1487 1484 1483
1480 1483 1483 1486 1486 1488 1491 1489 1492 1493 1492 1491 1488 1487 1487 1485 1484 1486 1486 1485 1481 1479
1477 1479 1480 1483 1485 1486 1489 1487 1490 1491 1492 1489 1486 1486 1485 1484 1484 1484 1484 1482 1479 1477
1473 1474 1479 1479 1482 1484 1487 1485 1489 1489 1492 1488 1486 1485 1484 1484 1484 1483 1483 1481 1478 1476
1469 1470 1474 1477 1480 1481 1483 1484 1486 1489 1489 1487 1485 1485 1484 1484 1483 1483 1482 1480 1478 1476
1468 1468 1470 1473 1477 1479 1479 1482 1484 1487 1487 1486 1485 1484 1484 1484 1483 1483 1482 1480 1478 1477
1465 1465 1467 1470 1475 1477 1477 1481 1484 1485 1485 1485 1484 1484 1483 1483 1483 1483 1482 1481 1479 1477
1462 1463 1466 1470 1472 1474 1475 1480 1483 1484 1484 1484 1484 1483 1483 1483 1483 1483 1482 1481 1479 1478
1457 1461 1464 1467 1471 1472 1475 1478 1480 1482 1483 1483 1484 1483 1483 1483 1483 1483 1483 1481 1479 1478
1453 1457 1460 1465 1467 1471 1473 1476 1478 1481 1482 1482 1483 1483 1483 1483 1483 1483 1483 1482 1482 1478
1450 1453 1458 1462 1465 1469 1471 1474 1476 1479 1483 1481 1483 1482 1482 1482 1483 1485 1484 1482 1482 1479
1447 1451 1455 1460 1464 1468 1471 1474 1477 1480 1482 1480 1481 1481 1482 1483 1484 1484 1483 1483 1481 1479
1445 1450 1454 1458 1464 1467 1471 1473 1475 1477 1477 1478 1479 1480 1481 1483 1483 1483 1483 1481 1478 1478
1444 1448 1452 1457 1461 1465 1467 1470 1471 1472 1475 1476 1477 1479 1480 1480 1481 1481 1481 1481 1478 1478